[[{"header":{"parameterUnit":"m.s-1","parameterCategory":2,"la1":30.2991,"la2":30.254,"lo1":-89.0895,"lo2":-89.0444,"dy":0.0017,"dx":0.0017,"nx":28,"ny":28,"refTime":"2024-06-01T09:00:00:Z","depth":"0","parameterNumber":2,"parameterNumberName":"U-component_of_CURRENTS"},"data":[0,0,0,0,0,0,0,0,0,0,0,0,0,0,0,0,0,0,0,0,0,0,0,0,0,0,0,0,0,0,0,0,0,0,0,0,0,0,0,0,0,0,0,0,0,0,0,0,0,0,0,0,0,0,0,0,0,0,0.2005,0.2005,0,0.202,0.202,0.202,0.2012,0.2011,0.2011,0.2011,0.2007,0.2007,0.2008,0,0,0,0,0,0,0,0,0,0,0,0,0,0.1978,0.1978,0.2005,0.2005,0.2006,0.202,0.202,0.202,0.2012,0.2011,0.2011,0.2011,0.2007,0.2007,0.2008,0,0,0,0,0,0,0,0,0,0,0,0,0,0.1989,0.1978,0.2005,0.2005,0.2005,0.202,0.202,0.202,0.2012,0.2011,0.2011,0.2011,0.2007,0.2007,0.2008,0.2015,0,0,0.2008,0.2008,0,0,0,0,0,0,0,0,0.1988,0.199,0.2005,0.2005,0.2005,0.2016,0.2009,0.2018,0.2012,0.2007,0.2011,0.2011,0.201,0.201,0.2011,0.2015,0.2015,0.2008,0.2008,0.2008,0.2008,0,0,0,0,0,0,0,0.1987,0.1989,0.2009,0.2005,0.2006,0.2007,0.2008,0.2011,0.2008,0.2007,0.2007,0.2013,0.201,0.2011,0.201,0.2015,0.2008,0.2008,0.2008,0.2008,0.2032,0.2032,0,0,0,0,0,0,0.199,0.1988,0.2008,0.2009,0.1998,0.2008,0.2009,0.2011,0.2008,0.2009,0.2013,0.2012,0.201,0.201,0.201,0.2031,0.2008,0.2008,0.2009,0.2031,0.2032,0.2032,0,0,0,0,0,0,0.1989,0.1991,0.2008,0.2001,0.2004,0.2009,0.2011,0.2011,0.2016,0.2013,0.2012,0.2018,0.201,0.201,0.2018,0.203,0.2008,0.2009,0.2031,0.2031,0.2032,0.2063,0,0,0,0,0,0,0.1988,0.1991,0.1995,0.2001,0.2004,0.2023,0.2012,0.2012,0.2021,0.202,0.2018,0.2017,0.201,0.2018,0.2018,0.203,0.2009,0.203,0.2031,0.2032,0.2062,0.2065,0.2068,0,0,0,0,0,0.1987,0.1995,0.1995,0.1997,0.2008,0.2024,0.2025,0.2027,0.2022,0.2029,0.2025,0.2017,0.2024,0.2018,0.2019,0.2031,0.2029,0.2031,0.2032,0.206,0.2065,0.2068,0,0,0,0,0,0,0.1988,0.1995,0.1995,0.2005,0.2017,0.2023,0.2031,0.2032,0.2035,0.2033,0.2025,0.2024,0.2037,0.2029,0.2023,0.204,0.2025,0.2026,0.2047,0.2051,0.2054,0.2069,0.2009,0,0,0,0,0,0.199,0.1994,0.2005,0.2014,0.2021,0.2026,0.2033,0.2036,0.204,0.2041,0.2038,0.2037,0.2042,0.2042,0.2045,0.2054,0.2069,0.2061,0.2064,0.2067,0.208,0.2109,0.2116,0.2036,0.2036,0.2036,0,0,0.1991,0.1998,0.2,0.2015,0.2021,0.2034,0.2029,0.2043,0.2053,0.204,0.205,0.2051,0.2048,0.206,0.2064,0.2054,0.21,0.2069,0.2071,0.2082,0.2111,0.2119,0.2126,0.2037,0.2037,0.2037,0,0,0.1997,0.2005,0.2009,0.2022,0.2038,0.2045,0.2051,0.2061,0.2065,0.2077,0.2072,0.2083,0.2082,0.2088,0.2089,0.2113,0.2119,0.2109,0.2134,0.2163,0.217,0.2176,0.2217,0.2227,0.2106,0.2106,0.2106,0,0.2,0.2006,0.2015,0.2027,0.2037,0.205,0.2061,0.2072,0.2083,0.2091,0.2083,0.2102,0.2099,0.2121,0.2129,0.2122,0.2143,0.2119,0.2168,0.2175,0.2181,0.2221,0.2231,0.2108,0.2108,0.2108,0.2108,0,0.2008,0.2016,0.2024,0.2039,0.2054,0.2068,0.2086,0.2102,0.2108,0.2116,0.2139,0.2141,0.2153,0.2153,0.2149,0.2189,0.2193,0.2173,0.216,0.2191,0.2231,0.2242,0.211,0.211,0.2109,0.2109,0,0,0.2002,0.2023,0.2024,0.2028,0.206,0.2069,0.2099,0.2124,0.2142,0.2157,0.2183,0.2196,0.2202,0.2206,0.2204,0.2228,0.2292,0.2222,0.2223,0.2268,0.2372,0.239,0.2403,0.228,0.2282,0.2283,0.2386,0,0.2003,0.2017,0.2031,0.2046,0.2056,0.2083,0.2108,0.2135,0.2159,0.219,0.2208,0.2231,0.222,0.2231,0.2257,0.2287,0.2319,0.2267,0.2332,0.2334,0.235,0.2416,0.2418,0.2512,0.2396,0.2398,0.2399,0,0.2002,0.2013,0.2022,0.2045,0.2051,0.2065,0.2107,0.2131,0.2187,0.2206,0.2244,0.2265,0.2318,0.2295,0.2374,0.2343,0.2366,0.2383,0.2387,0.2402,0.2372,0.246,0.2535,0.2514,0.2415,0.2414,0.2413,0,0.1981,0.2003,0.2005,0.2014,0.2047,0.2058,0.208,0.2133,0.2166,0.2223,0.2271,0.2314,0.2363,0.2394,0.2449,0.2415,0.2539,0.249,0.2529,0.2531,0.2546,0.2546,0.2613,0.2545,0.2545,0.2545,0.2544,0,0.1972,0.1973,0.1992,0.1993,0.2004,0.2036,0.2064,0.2097,0.2169,0.2219,0.2277,0.2339,0.2394,0.2473,0.2485,0.2565,0.2572,0.2563,0.2567,0.2557,0.2557,0.2548,0.2504,0.2548,0.2548,0.2547,0.2546,0,0.1942,0.1956,0.1957,0.1982,0.199,0.1996,0.2055,0.2083,0.2162,0.224,0.227,0.239,0.2496,0.2561,0.2633,0.2634,0.2617,0.2699,0.2696,0.2698,0.2688,0.2645,0.2455,0.2395,0.2758,0.2759,0.276,0,0.1924,0.1921,0.1935,0.1938,0.1944,0.1967,0.1988,0.2061,0.2104,0.2265,0.2305,0.2456,0.2555,0.2702,0.2741,0.2805,0.2672,0.2818,0.2744,0.272,0.2675,0.2407,0.2351,0.2782,0.2783,0.2784,0.2785,0,0.1889,0.1891,0.1894,0.1905,0.1914,0.193,0.1972,0.2011,0.2112,0.2209,0.2335,0.2438,0.2629,0.2728,0.2845,0.2858,0.2689,0.2837,0.2815,0.2715,0.2425,0.2361,0.2685,0.2793,0.2792,0.2792,0.2791,0.2791,0.1859,0.1856,0.1865,0.1872,0.1879,0.1891,0.1899,0.1967,0.2047,0.218,0.2296,0.2451,0.2689,0.2867,0.2855,0.2899,0.2733,0.2863,0.2822,0.2556,0.2463,0.2815,0.2915,0.2915,0.2915,0.2915,0.2915,0,0.1838,0.184,0.1839,0.1841,0.183,0.1853,0.1886,0.1897,0.1968,0.2135,0.2251,0.2522,0.2689,0.283,0.297,0.2915,0.2689,0.2858,0.2523,0.248,0.2849,0.2823,0.2906,0.2906,0.2906,0.2906,0.2906,0.2906,0.1829,0.1825,0.1829,0.1801,0.1796,0.1776,0.1783,0.181,0.1912,0.2069,0.2231,0.237,0.2651,0.2862,0.2901,0.2857,0.2617,0.2489,0.2413,0.2769,0.2766,0.2762,0.273,0.2792,0.2792,0.195,0.1944,0.194]},{"header":{"parameterUnit":"m.s-1","parameterCategory":2,"la1":30.2991,"la2":30.254,"lo1":-89.0895,"lo2":-89.0444,"dy":0.0017,"dx":0.0017,"nx":28,"ny":28,"refTime":"2024-06-01T09:00:00:Z","depth":"0","parameterNumber":3,"parameterNumberName":"V-component_of_CURRENTS"},"data":[0,0,0,0,0,0,0,0,0,0,0,0,0,0,0,0,0,0,0,0,0,0,0,0,0,0,0,0,0,0,0,0,0,0,0,0,0,0,0,0,0,0,0,0,0,0,0,0,0,0,0,0,0,0,0,0,0,0,0.0362,0.0361,0,0.0327,0.0326,0.0326,0.0298,0.0298,0.0298,0.0298,0.0225,0.0223,0.0221,0,0,0,0,0,0,0,0,0,0,0,0,0,0.0369,0.0369,0.0362,0.0361,0.0361,0.0327,0.0326,0.0325,0.0298,0.0298,0.0298,0.0298,0.0225,0.0223,0.0221,0,0,0,0,0,0,0,0,0,0,0,0,0,0.0352,0.0369,0.0362,0.0344,0.0342,0.0327,0.0326,0.0325,0.0299,0.0298,0.0298,0.0298,0.0226,0.0223,0.0221,0.0209,0,0,0.0212,0.0211,0,0,0,0,0,0,0,0,0.0353,0.0352,0.0347,0.0345,0.0343,0.0317,0.0302,0.0285,0.0299,0.0314,0.0298,0.0298,0.0253,0.0248,0.0241,0.0206,0.0203,0.0212,0.0211,0.0209,0.0209,0,0,0,0,0,0,0,0.0355,0.0353,0.0347,0.0347,0.0344,0.0325,0.0323,0.0298,0.0284,0.0313,0.0311,0.0309,0.0251,0.0244,0.0239,0.0201,0.0212,0.021,0.0208,0.0207,0.015,0.015,0,0,0,0,0,0,0.0363,0.0354,0.0348,0.0346,0.0349,0.0326,0.0323,0.0325,0.0285,0.0279,0.0309,0.0307,0.0249,0.0242,0.0236,0.0225,0.0209,0.0207,0.0205,0.0149,0.015,0.015,0,0,0,0,0,0,0.0363,0.0363,0.0349,0.035,0.0347,0.0326,0.0329,0.0325,0.0319,0.0283,0.0276,0.0307,0.0248,0.024,0.0214,0.0221,0.0206,0.0203,0.0149,0.0149,0.015,0.0198,0,0,0,0,0,0,0.0364,0.0363,0.0367,0.0351,0.0347,0.0347,0.0329,0.0324,0.0318,0.0316,0.0279,0.0272,0.0247,0.0218,0.0212,0.0217,0.0201,0.0149,0.0149,0.015,0.0196,0.02,0.0203,0,0,0,0,0,0.0364,0.0375,0.0367,0.0366,0.0353,0.0348,0.0345,0.0328,0.0318,0.032,0.0291,0.0273,0.0215,0.0216,0.0208,0.0213,0.0149,0.0149,0.015,0.0195,0.0199,0.0203,0,0,0,0,0,0,0.0379,0.0373,0.0364,0.0372,0.0362,0.0344,0.0344,0.0332,0.0311,0.0307,0.0271,0.0262,0.0243,0.022,0.0223,0.0197,0.018,0.0179,0.0217,0.0221,0.0224,0.0244,0.0199,0,0,0,0,0,0.0385,0.0391,0.0379,0.0384,0.0382,0.0363,0.0358,0.0348,0.0328,0.0319,0.0294,0.0264,0.0238,0.0223,0.0199,0.0182,0.0162,0.0181,0.0184,0.0187,0.0197,0.0162,0.0163,0.015,0.015,0.015,0,0,0.039,0.0388,0.0391,0.0387,0.0378,0.0383,0.0359,0.0358,0.036,0.0313,0.0307,0.0275,0.0236,0.0219,0.0209,0.02,0.0181,0.0187,0.019,0.0198,0.0162,0.0164,0.0165,0.015,0.015,0.015,0,0,0.0411,0.0405,0.0419,0.0417,0.041,0.0399,0.0402,0.0387,0.0378,0.0365,0.0332,0.0303,0.0269,0.0241,0.0222,0.0227,0.02,0.0221,0.0252,0.0218,0.0219,0.0219,0.0204,0.0203,0.0222,0.0222,0.0222,0,0.0417,0.0436,0.0421,0.0436,0.044,0.0411,0.0428,0.0414,0.0392,0.0386,0.037,0.0316,0.028,0.0255,0.0256,0.0235,0.0219,0.0241,0.0223,0.0223,0.0223,0.0206,0.0204,0.0224,0.0224,0.0224,0.0223,0,0.045,0.0464,0.0473,0.0482,0.0483,0.0493,0.0477,0.0471,0.0454,0.0437,0.0413,0.0362,0.0331,0.0313,0.0285,0.0267,0.0258,0.0232,0.0216,0.0227,0.0209,0.0206,0.0228,0.0227,0.0226,0.0225,0,0,0.0464,0.0492,0.0495,0.0513,0.0512,0.0519,0.052,0.0515,0.0519,0.0484,0.0486,0.0428,0.0401,0.0377,0.0335,0.0303,0.0283,0.0273,0.027,0.0265,0.0224,0.0231,0.0229,0.0254,0.0253,0.0253,0.0216,0,0.0494,0.0538,0.0541,0.0577,0.0599,0.0582,0.0591,0.0579,0.0559,0.0551,0.0494,0.0478,0.0425,0.0413,0.0371,0.0306,0.0276,0.0296,0.0209,0.0207,0.0217,0.0226,0.0299,0.0273,0.0213,0.0212,0.0212,0,0.0525,0.0553,0.0601,0.0636,0.0644,0.0657,0.0666,0.0671,0.0646,0.0628,0.0594,0.0557,0.0508,0.0462,0.0359,0.0377,0.031,0.0256,0.0252,0.0242,0.0209,0.0249,0.0269,0.0186,0.0207,0.0207,0.0208,0,0.0549,0.0594,0.0636,0.0648,0.0679,0.0693,0.0704,0.0694,0.0712,0.068,0.0695,0.0616,0.0596,0.0496,0.0389,0.0375,0.0282,0.0242,0.0187,0.0187,0.0224,0.0228,0.016,0.0173,0.0173,0.0173,0.0173,0,0.0582,0.0614,0.0652,0.0676,0.0728,0.0731,0.0777,0.0767,0.0776,0.0819,0.0743,0.0761,0.0605,0.054,0.0421,0.0307,0.0304,0.0202,0.0178,0.0244,0.025,0.0158,0.0119,0.0172,0.0172,0.0173,0.0173,0,0.0599,0.0625,0.0678,0.0723,0.0744,0.0778,0.0841,0.0872,0.087,0.0927,0.093,0.087,0.0788,0.0641,0.0481,0.0366,0.0226,0.0201,0.03,0.0287,0.0151,0.0113,0.0079,0.0071,0.0133,0.0133,0.0133,0,0.0612,0.0642,0.0715,0.0758,0.0781,0.084,0.0888,0.091,0.0958,0.1008,0.1046,0.0991,0.0984,0.0753,0.0537,0.0341,0.0255,0.0258,0.0231,0.0163,0.0102,0.0107,0.0103,0.0302,0.0303,0.0305,0.0305,0,0.0637,0.0663,0.0711,0.0804,0.0865,0.0945,0.1019,0.1078,0.1129,0.1195,0.1268,0.1273,0.1078,0.0923,0.064,0.0483,0.0261,0.0274,0.0175,0.0212,0.0243,0.0218,0.0312,0.0315,0.0314,0.0314,0.0313,0.0313,0.0655,0.0699,0.0774,0.0861,0.0939,0.105,0.1136,0.1232,0.1349,0.1488,0.1459,0.1551,0.132,0.0953,0.0682,0.0321,0.0332,0.0236,0.0192,0.02,0.0208,0.0331,0.0318,0.0317,0.0317,0.0316,0.0315,0,0.0688,0.0749,0.0831,0.0946,0.1041,0.1079,0.1229,0.1339,0.1508,0.1669,0.1762,0.1823,0.1483,0.1114,0.0615,0.0318,0.0226,0.0166,0.0184,0.0178,0.0261,0.0282,0.0296,0.0296,0.0296,0.0296,0.0296,0.0297,0.0712,0.0803,0.0856,0.1021,0.1103,0.1258,0.1357,0.1529,0.1697,0.1986,0.2167,0.2263,0.213,0.112,0.0469,0.0267,0.0103,0.008,-0.0018,0.0017,0.002,0.0022,0.003,-0.0009,-0.0009,-0.0029,-0.0029,-0.003]}],[{"header":{"parameterUnit":"m.s-1","parameterCategory":2,"la1":30.2991,"la2":30.254,"lo1":-89.0895,"lo2":-89.0444,"dy":0.0017,"dx":0.0017,"nx":28,"ny":28,"refTime":"2024-06-01T09:00:00:Z","depth":"2","parameterNumber":2,"parameterNumberName":"U-component_of_CURRENTS"},"data":[0,0,0,0,0,0,0,0,0,0,0,0,0,0,0,0,0,0,0,0,0,0,0,0,0,0,0,0,0,0,0,0,0,0,0,0,0,0,0,0,0,0,0,0,0,0,0,0,0,0,0,0,0,0,0,0,0,0,0.1917,0.1917,0,0.1933,0.1933,0.1933,0.1928,0.1928,0.1928,0.1928,0.1928,0.1928,0.1928,0,0,0,0,0,0,0,0,0,0,0,0,0,0.1888,0.1888,0.1917,0.1917,0.1918,0.1933,0.1933,0.1933,0.1928,0.1928,0.1928,0.1928,0.1928,0.1928,0.1928,0,0,0,0,0,0,0,0,0,0,0,0,0,0.19,0.1888,0.1917,0.1919,0.1919,0.1933,0.1933,0.1933,0.1928,0.1928,0.1928,0.1928,0.1928,0.1928,0.1928,0.1934,0,0,0.1929,0.1929,0,0,0,0,0,0,0,0,0.1899,0.1901,0.1918,0.1919,0.1919,0.193,0.1923,0.1933,0.1928,0.1923,0.1928,0.1928,0.1929,0.1929,0.193,0.1934,0.1934,0.1929,0.1929,0.1929,0.1929,0,0,0,0,0,0,0,0.1898,0.19,0.1921,0.1919,0.1919,0.1921,0.1922,0.1925,0.1925,0.1923,0.1923,0.1929,0.1929,0.1929,0.193,0.1934,0.1929,0.1929,0.1929,0.1929,0.1954,0.1955,0,0,0,0,0,0,0.1901,0.1899,0.1921,0.1922,0.1911,0.1922,0.1923,0.1925,0.1925,0.1926,0.1929,0.1928,0.1929,0.1929,0.193,0.1952,0.1929,0.1929,0.1929,0.1954,0.1954,0.1955,0,0,0,0,0,0,0.19,0.1902,0.192,0.1913,0.1916,0.1923,0.1925,0.1926,0.1933,0.193,0.193,0.1936,0.1929,0.1929,0.1939,0.1951,0.1929,0.193,0.1953,0.1954,0.1955,0.1987,0,0,0,0,0,0,0.1899,0.1902,0.1906,0.1913,0.1916,0.1935,0.1926,0.1926,0.1937,0.1937,0.1936,0.1935,0.1929,0.1938,0.1939,0.1951,0.193,0.1952,0.1953,0.1954,0.1985,0.1988,0.1991,0,0,0,0,0,0.1898,0.1905,0.1906,0.1909,0.1921,0.1936,0.1938,0.1941,0.1938,0.1945,0.1943,0.1936,0.1945,0.1939,0.1939,0.1952,0.1952,0.1953,0.1954,0.1983,0.1988,0.1991,0,0,0,0,0,0,0.1898,0.1906,0.1907,0.1917,0.193,0.1936,0.1945,0.1947,0.1951,0.1951,0.1944,0.1944,0.1958,0.195,0.1944,0.1962,0.1947,0.1948,0.1969,0.1973,0.1976,0.1991,0.193,0,0,0,0,0,0.19,0.1905,0.1917,0.1926,0.1933,0.194,0.1947,0.1951,0.1956,0.1958,0.1957,0.1956,0.1963,0.1964,0.1967,0.1976,0.1991,0.1984,0.1988,0.199,0.2002,0.2031,0.2039,0.1959,0.1959,0.1959,0,0,0.1902,0.1909,0.1911,0.1927,0.1934,0.1947,0.1943,0.1959,0.1969,0.1957,0.1969,0.1971,0.1969,0.1981,0.1986,0.1976,0.2023,0.1992,0.1995,0.2005,0.2033,0.2041,0.2048,0.196,0.196,0.1959,0,0,0.1907,0.1916,0.1921,0.1934,0.1951,0.1958,0.1965,0.1977,0.1981,0.1994,0.1991,0.2003,0.2005,0.201,0.2012,0.2036,0.2043,0.2033,0.2059,0.2086,0.2094,0.21,0.214,0.2149,0.2031,0.2031,0.2031,0,0.191,0.1917,0.1927,0.1939,0.1949,0.1965,0.1976,0.1987,0.2,0.2008,0.2002,0.2023,0.2021,0.2043,0.2052,0.2045,0.2066,0.2043,0.2092,0.2098,0.2104,0.2144,0.2154,0.2033,0.2032,0.2032,0.2032,0,0.1918,0.1927,0.1935,0.1951,0.1967,0.1981,0.2,0.2017,0.2025,0.2033,0.2059,0.2062,0.2076,0.2076,0.2073,0.2113,0.2117,0.2097,0.2084,0.2115,0.2154,0.2164,0.2035,0.2034,0.2034,0.2033,0,0,0.1913,0.1934,0.1936,0.1941,0.1973,0.1982,0.2013,0.2039,0.2058,0.2074,0.2101,0.2116,0.2124,0.2128,0.2127,0.2151,0.2214,0.2146,0.2147,0.219,0.2293,0.2306,0.2319,0.2203,0.2205,0.2206,0.2307,0,0.1915,0.1928,0.1943,0.1959,0.1969,0.1997,0.2022,0.205,0.2075,0.2107,0.2127,0.215,0.2141,0.2154,0.218,0.2209,0.2241,0.219,0.2253,0.2255,0.2267,0.2331,0.2133,0.2208,0.2317,0.2319,0.232,0,0.1914,0.1924,0.1935,0.1958,0.1965,0.1979,0.2023,0.2047,0.2103,0.2124,0.2162,0.2185,0.2238,0.2216,0.2294,0.2264,0.2287,0.2304,0.2308,0.2318,0.2288,0.2192,0.2222,0.2337,0.2335,0.2334,0.2333,0,0.1894,0.1916,0.1919,0.1928,0.1961,0.1974,0.1997,0.205,0.2084,0.2142,0.2189,0.2233,0.2283,0.2313,0.2368,0.2335,0.2456,0.2408,0.2443,0.2444,0.2289,0.2274,0.2463,0.2463,0.2463,0.2462,0.2462,0,0.1885,0.1887,0.1907,0.1908,0.1921,0.1953,0.1983,0.2017,0.2089,0.2138,0.2197,0.2258,0.2313,0.239,0.2403,0.248,0.2489,0.2476,0.2479,0.2296,0.2282,0.2393,0.2383,0.2466,0.2465,0.2464,0.2464,0,0.1857,0.1871,0.1873,0.1899,0.1908,0.1915,0.1975,0.2004,0.2083,0.2161,0.2191,0.2309,0.2411,0.2476,0.2546,0.2546,0.2592,0.2607,0.2406,0.2384,0.2549,0.254,0.2657,0.2658,0.2659,0.266,0.2661,0,0.184,0.1837,0.1853,0.1856,0.1864,0.1889,0.1911,0.1984,0.2027,0.2185,0.2223,0.2371,0.2462,0.2604,0.2608,0.266,0.2666,0.251,0.2409,0.2582,0.2573,0.2562,0.2551,0.2213,0.221,0.2208,0.2206,0,0.1806,0.181,0.1813,0.1826,0.1836,0.1853,0.1895,0.1933,0.2033,0.2126,0.2248,0.2343,0.2496,0.248,0.2577,0.2558,0.2484,0.2468,0.2699,0.2207,0.2175,0.2163,0.2165,0.2185,0.2187,0.2189,0.219,0.2191,0.1778,0.1775,0.1785,0.1795,0.1802,0.1814,0.1821,0.188,0.1955,0.2059,0.2179,0.2259,0.2328,0.2383,0.2332,0.2288,0.2455,0.2334,0.2335,0.2341,0.2284,0.2258,0.2273,0.2275,0.2278,0.2279,0.2281,0,0.1752,0.1761,0.176,0.1763,0.1746,0.1778,0.1809,0.1796,0.185,0.196,0.2048,0.1949,0.1997,0.2049,0.1971,0.2006,0.1908,0.191,0.1759,0.1785,0.1807,0.1715,0.1557,0.1554,0.1552,0.1549,0,0,0.1742,0.1735,0.1739,0.1709,0.1711,0.1678,0.1684,0.1668,0.1713,0.1722,0.1752,0.1918,0.2034,0.1768,0.1755,0.1648,0.1683,0.1575,0.217,0.2022,0.2039,0.2088,0.1983,0,0,0,0,0]},{"header":{"parameterUnit":"m.s-1","parameterCategory":2,"la1":30.2991,"la2":30.254,"lo1":-89.0895,"lo2":-89.0444,"dy":0.0017,"dx":0.0017,"nx":28,"ny":28,"refTime":"2024-06-01T09:00:00:Z","depth":"2","parameterNumber":3,"parameterNumberName":"V-component_of_CURRENTS"},"data":[0,0,0,0,0,0,0,0,0,0,0,0,0,0,0,0,0,0,0,0,0,0,0,0,0,0,0,0,0,0,0,0,0,0,0,0,0,0,0,0,0,0,0,0,0,0,0,0,0,0,0,0,0,0,0,0,0,0,0.0301,0.0301,0,0.0268,0.0268,0.0267,0.0242,0.0242,0.0242,0.0241,0.0169,0.0168,0.0166,0,0,0,0,0,0,0,0,0,0,0,0,0,0.0305,0.0306,0.0301,0.0301,0.0301,0.0268,0.0268,0.0267,0.0242,0.0242,0.0242,0.0241,0.017,0.0168,0.0166,0,0,0,0,0,0,0,0,0,0,0,0,0,0.029,0.0306,0.0301,0.0285,0.0283,0.0268,0.0268,0.0267,0.0242,0.0242,0.0241,0.0241,0.0171,0.0168,0.0165,0.0153,0,0,0.0157,0.0156,0,0,0,0,0,0,0,0,0.0291,0.029,0.0288,0.0286,0.0284,0.026,0.0243,0.0227,0.0242,0.0257,0.0241,0.0241,0.0197,0.0192,0.0185,0.015,0.0147,0.0157,0.0155,0.0154,0.0154,0,0,0,0,0,0,0,0.0292,0.0291,0.0287,0.0287,0.0285,0.0266,0.0264,0.024,0.0227,0.0255,0.0254,0.0252,0.0195,0.0188,0.0183,0.0146,0.0157,0.0155,0.0153,0.0152,0.0094,0.0094,0,0,0,0,0,0,0.0301,0.0292,0.0288,0.0286,0.0288,0.0267,0.0264,0.0267,0.0228,0.0222,0.0252,0.025,0.0193,0.0187,0.0181,0.0169,0.0154,0.0152,0.015,0.0094,0.0094,0.0094,0,0,0,0,0,0,0.0301,0.0301,0.029,0.0289,0.0286,0.0267,0.027,0.0266,0.0261,0.0226,0.0219,0.0251,0.0192,0.0184,0.0159,0.0166,0.0151,0.0148,0.0094,0.0094,0.0094,0.0142,0,0,0,0,0,0,0.0301,0.0301,0.0305,0.029,0.0287,0.0288,0.027,0.0266,0.0261,0.0259,0.0223,0.0216,0.0192,0.0163,0.0156,0.0162,0.0146,0.0094,0.0094,0.0094,0.0141,0.0144,0.0147,0,0,0,0,0,0.0302,0.0313,0.0305,0.0305,0.0293,0.0288,0.0285,0.0269,0.0261,0.0263,0.0234,0.0217,0.0159,0.0161,0.0153,0.0158,0.0094,0.0094,0.0094,0.0139,0.0143,0.0147,0,0,0,0,0,0,0.0315,0.0311,0.0302,0.0311,0.0302,0.0284,0.0285,0.0274,0.0254,0.025,0.0215,0.0206,0.0188,0.0164,0.0167,0.0141,0.0125,0.0123,0.0162,0.0165,0.0168,0.0187,0.0144,0,0,0,0,0,0.0321,0.0328,0.0317,0.0322,0.032,0.0303,0.0298,0.0289,0.027,0.0262,0.0237,0.0208,0.0182,0.0167,0.0143,0.0127,0.0106,0.0125,0.0128,0.0131,0.014,0.0106,0.0107,0.0095,0.0095,0.0095,0,0,0.0326,0.0325,0.0328,0.0325,0.0317,0.0322,0.03,0.0299,0.0301,0.0256,0.0249,0.0218,0.018,0.0163,0.0153,0.0144,0.0125,0.0131,0.0134,0.0142,0.0106,0.0107,0.0109,0.0095,0.0095,0.0095,0,0,0.0346,0.0342,0.0355,0.0354,0.0348,0.0338,0.034,0.0327,0.0318,0.0306,0.0274,0.0246,0.0212,0.0184,0.0165,0.017,0.0143,0.0164,0.0194,0.016,0.0161,0.0162,0.0145,0.0144,0.0165,0.0165,0.0165,0,0.0351,0.0371,0.0357,0.0372,0.0377,0.0349,0.0366,0.0352,0.0332,0.0326,0.0311,0.0258,0.0222,0.0197,0.0199,0.0178,0.0161,0.0184,0.0165,0.0165,0.0165,0.0148,0.0146,0.0167,0.0167,0.0167,0.0166,0,0.0384,0.0398,0.0407,0.0417,0.0418,0.0429,0.0413,0.0407,0.0392,0.0376,0.0352,0.0302,0.0272,0.0254,0.0227,0.0209,0.02,0.0175,0.0159,0.0169,0.015,0.0147,0.0171,0.017,0.0169,0.0168,0,0,0.0397,0.0426,0.0428,0.0446,0.0447,0.0453,0.0455,0.045,0.0454,0.0421,0.0423,0.0365,0.034,0.0316,0.0275,0.0243,0.0223,0.0215,0.0212,0.0205,0.0164,0.017,0.0166,0.0195,0.0195,0.0194,0.0155,0,0.0426,0.047,0.0473,0.0509,0.0531,0.0515,0.0523,0.0512,0.0493,0.0485,0.0429,0.0414,0.0363,0.0352,0.031,0.0246,0.0216,0.0237,0.0149,0.0147,0.0156,0.0163,0.0164,0.013,0.0151,0.0151,0.015,0,0.0457,0.0485,0.0532,0.0567,0.0575,0.0588,0.0597,0.0602,0.0577,0.056,0.0527,0.0491,0.0442,0.0398,0.0297,0.0314,0.0249,0.0195,0.0191,0.0179,0.0147,0.012,0.0123,0.0145,0.0145,0.0146,0.0146,0,0.0481,0.0525,0.0567,0.0579,0.061,0.0624,0.0635,0.0624,0.0642,0.0611,0.0625,0.0548,0.0528,0.043,0.0325,0.0311,0.0218,0.018,0.0123,0.0123,0.0099,0.0098,0.0111,0.0111,0.0111,0.0111,0.0111,0,0.0513,0.0545,0.0583,0.0607,0.0658,0.0662,0.0707,0.0697,0.0705,0.0747,0.0672,0.0688,0.0537,0.0471,0.0355,0.0241,0.0238,0.0138,0.0113,0.0117,0.0118,0.0107,0.0107,0.011,0.011,0.011,0.011,0,0.053,0.0556,0.0609,0.0654,0.0674,0.0708,0.077,0.08,0.0798,0.0852,0.0855,0.0794,0.0711,0.0567,0.0409,0.0297,0.0174,0.0133,0.0159,0.0139,0.0094,0.0097,0.0063,0.0063,0.0063,0.0063,0.0063,0,0.0543,0.0573,0.0646,0.0688,0.0712,0.077,0.0817,0.0838,0.0884,0.093,0.0965,0.0909,0.0893,0.0664,0.0439,0.0242,0.0205,0.0111,0.0077,0.0109,0.0088,0.0092,0.0095,0.0062,0.0062,0.0062,0.0062,0,0.0568,0.0594,0.0642,0.0733,0.0794,0.0872,0.0944,0.1001,0.1049,0.1107,0.1173,0.117,0.0961,0.0755,0.0471,0.032,0.0138,0.0105,0.0123,0.0081,0.0106,0.0087,0.0089,0.0061,0.0061,0.0061,0.0061,0.0061,0.0585,0.0629,0.0702,0.0788,0.0865,0.0973,0.1056,0.1137,0.1245,0.1343,0.1322,0.1324,0.1067,0.0714,0.044,0.0146,0.017,0.0056,0.0056,0.0056,0.0071,0.0095,0.0051,0.0051,0.0051,0.0051,0.0051,0,0.0613,0.0677,0.0757,0.087,0.0958,0.1003,0.1146,0.1225,0.1369,0.1451,0.1506,0.1277,0.104,0.075,0.0329,0.0081,0.0032,-0.0016,-0.0018,-0.0015,-0.0013,-0.0002,-0.0042,-0.0043,-0.0044,-0.0045,0,0,0.0634,0.0721,0.0772,0.0931,0.1017,0.1156,0.1252,0.1366,0.1457,0.1543,0.1554,0.15,0.1165,0.0834,0.0474,0.0231,0.0161,0.0164,0.0267,0.0311,0.0316,0.0058,0.0082,0,0,0,0,0]}],[{"header":{"parameterUnit":"m.s-1","parameterCategory":2,"la1":30.2991,"la2":30.254,"lo1":-89.0895,"lo2":-89.0444,"dy":0.0017,"dx":0.0017,"nx":28,"ny":28,"refTime":"2024-06-01T09:00:00:Z","depth":"4","parameterNumber":2,"parameterNumberName":"U-component_of_CURRENTS"},"data":[0,0,0,0,0,0,0,0,0,0,0,0,0,0,0,0,0,0,0,0,0,0,0,0,0,0,0,0,0,0,0,0,0,0,0,0,0,0,0,0,0,0,0,0,0,0,0,0,0,0,0,0,0,0,0,0,0,0,0.1192,0.1193,0,0.1247,0.1248,0.1248,0.1295,0.1296,0.1296,0.1297,0.1364,0.1365,0.1367,0,0,0,0,0,0,0,0,0,0,0,0,0,0.1118,0.1119,0.1192,0.1193,0.1193,0.1247,0.1248,0.1248,0.1295,0.1296,0.1297,0.1297,0.1364,0.1365,0.1367,0,0,0,0,0,0,0,0,0,0,0,0,0,0.1158,0.1119,0.1192,0.1224,0.1228,0.1247,0.1248,0.1248,0.1295,0.1296,0.1297,0.1298,0.1363,0.1365,0.1367,0.1359,0,0,0.1373,0.1373,0,0,0,0,0,0,0,0,0.1156,0.1161,0.1218,0.1222,0.1226,0.1266,0.1246,0.1287,0.1295,0.1268,0.1297,0.1298,0.1333,0.1337,0.1344,0.1363,0.1366,0.1373,0.1374,0.1375,0.1375,0,0,0,0,0,0,0,0.1153,0.1158,0.1213,0.1219,0.1224,0.1233,0.1239,0.1254,0.1294,0.127,0.1274,0.1282,0.1335,0.1342,0.1346,0.1367,0.1373,0.1374,0.1375,0.1376,0.146,0.1461,0,0,0,0,0,0,0.1148,0.1156,0.1211,0.1214,0.1194,0.1233,0.1241,0.1251,0.1293,0.1301,0.1281,0.1284,0.1338,0.1343,0.1348,0.1416,0.1375,0.1376,0.1377,0.1459,0.146,0.1461,0,0,0,0,0,0,0.1146,0.1152,0.1209,0.1187,0.1195,0.1234,0.1245,0.1252,0.1286,0.1302,0.1309,0.1311,0.1339,0.1346,0.1388,0.1416,0.1377,0.1379,0.1458,0.1459,0.1461,0.1504,0,0,0,0,0,0,0.1144,0.1151,0.1168,0.1187,0.1196,0.1237,0.1245,0.1252,0.1288,0.1293,0.1329,0.1335,0.134,0.1386,0.139,0.1418,0.138,0.1456,0.1458,0.146,0.1501,0.1507,0.1512,0,0,0,0,0,0.1141,0.1154,0.1169,0.1176,0.1214,0.1238,0.1244,0.1273,0.1289,0.1307,0.1336,0.1336,0.1402,0.1388,0.1393,0.1422,0.1455,0.1458,0.146,0.1499,0.1506,0.1512,0,0,0,0,0,0,0.113,0.1161,0.1177,0.12,0.1226,0.1247,0.1268,0.1286,0.1323,0.1337,0.135,0.1358,0.1407,0.1407,0.1391,0.1452,0.1428,0.1432,0.1456,0.1463,0.1468,0.1473,0.1382,0,0,0,0,0,0.1135,0.1157,0.1184,0.1206,0.1221,0.1249,0.1268,0.1289,0.1317,0.1335,0.1362,0.1389,0.1415,0.1434,0.1455,0.1487,0.1494,0.1509,0.1514,0.1519,0.1526,0.1555,0.1564,0.147,0.147,0.147,0,0,0.1135,0.1157,0.117,0.1206,0.1229,0.1255,0.1264,0.1299,0.1328,0.1336,0.1391,0.1412,0.1429,0.147,0.1491,0.1477,0.1551,0.1522,0.1526,0.1531,0.1559,0.1568,0.1576,0.1472,0.1471,0.1471,0,0,0.1138,0.117,0.1187,0.1213,0.1255,0.1274,0.129,0.1328,0.1357,0.1404,0.142,0.146,0.1499,0.1518,0.1531,0.1577,0.158,0.1586,0.1618,0.1646,0.1654,0.1661,0.1689,0.1699,0.1587,0.1587,0.1587,0,0.114,0.1167,0.1196,0.122,0.1246,0.1286,0.1311,0.1344,0.1394,0.142,0.143,0.1503,0.152,0.1567,0.1589,0.159,0.1607,0.1591,0.1654,0.1661,0.1667,0.1694,0.1704,0.159,0.159,0.1589,0.1589,0,0.1149,0.1183,0.1197,0.1244,0.1274,0.1306,0.135,0.1394,0.1435,0.1464,0.153,0.1558,0.1601,0.1614,0.162,0.1676,0.1675,0.1658,0.1636,0.1679,0.1705,0.1714,0.1593,0.1592,0.1592,0.1591,0,0,0.1122,0.119,0.1199,0.1227,0.1293,0.1315,0.1375,0.1432,0.1475,0.1529,0.1582,0.1635,0.1659,0.1675,0.169,0.1718,0.1784,0.1716,0.1716,0.1742,0.1856,0.1745,0.1745,0.1781,0.1783,0.1784,0.1858,0,0.1124,0.1168,0.1206,0.1259,0.1286,0.1348,0.1397,0.1457,0.1512,0.1574,0.162,0.1676,0.1679,0.1712,0.1743,0.1778,0.1809,0.1766,0.1811,0.1813,0.1708,0.1751,0.1789,0.1865,0.1867,0.1869,0.187,0,0.1117,0.1152,0.1198,0.1273,0.1292,0.1334,0.1424,0.1473,0.1565,0.1608,0.1674,0.1714,0.1787,0.1773,0.1857,0.1833,0.1854,0.1869,0.1872,0.1759,0.1718,0.1812,0.1886,0.1885,0.1884,0.1882,0.1881,0,0.1074,0.1146,0.1184,0.121,0.1298,0.1341,0.1397,0.1487,0.1542,0.1639,0.1696,0.1767,0.1829,0.1864,0.1917,0.1897,0.1996,0.1963,0.1881,0.1874,0.1933,0.1924,0.2013,0.2013,0.2013,0.2013,0.2013,0,0.1051,0.1085,0.1173,0.1193,0.1251,0.1322,0.1395,0.146,0.1564,0.1627,0.1716,0.1775,0.1859,0.1928,0.1944,0.1948,0.2021,0.1897,0.1886,0.195,0.1943,0.194,0.193,0.2015,0.2015,0.2014,0.2014,0,0.0993,0.1051,0.1099,0.1195,0.1231,0.1272,0.1396,0.1445,0.1556,0.1646,0.1687,0.1815,0.1894,0.1964,0.2031,0.198,0.1991,0.1972,0.2057,0.2048,0.1843,0.1835,0.1876,0.1873,0.187,0.1868,0.1866,0,0.0964,0.0984,0.1084,0.1119,0.1168,0.1247,0.1302,0.1423,0.1478,0.1651,0.1684,0.1817,0.1884,0.1902,0.1967,0.199,0.1965,0.1955,0.1875,0.1844,0.183,0.1826,0.1822,0.1861,0.1861,0.186,0.1859,0,0.091,0.0955,0.0994,0.1064,0.1127,0.1188,0.1279,0.1314,0.1452,0.1569,0.1644,0.1697,0.1786,0.183,0.1873,0.1879,0.1948,0.1925,0.193,0.1854,0.1826,0.1814,0.1814,0.185,0.1851,0.1852,0.1852,0,0.0873,0.0884,0.0947,0.1001,0.1073,0.1116,0.1171,0.1245,0.1319,0.1502,0.1518,0.1656,0.1765,0.1774,0.1808,0.1814,0.1775,0.1701,0.1716,0.1728,0.1643,0.1584,0.1532,0,0,0,0,0,0.0833,0.0842,0.0884,0.0938,0.1005,0.1054,0.1152,0.1211,0.1342,0.1356,0.1436,0.1507,0.157,0.1637,0.1613,0.174,0.1781,0.1703,0.1703,0.1796,0.1807,0.172,0,0,0,0,0,0,0.0807,0.084,0.0856,0.0879,0.0908,0.0975,0.1035,0.1123,0.1137,0.1272,0.1315,0.1413,0.1497,0.1573,0.1585,0.1604,0.1571,0.1784,0.178,0.179,0.18,0.1809,0.1723,0,0,0,0,0]},{"header":{"parameterUnit":"m.s-1","parameterCategory":2,"la1":30.2991,"la2":30.254,"lo1":-89.0895,"lo2":-89.0444,"dy":0.0017,"dx":0.0017,"nx":28,"ny":28,"refTime":"2024-06-01T09:00:00:Z","depth":"4","parameterNumber":3,"parameterNumberName":"V-component_of_CURRENTS"},"data":[0,0,0,0,0,0,0,0,0,0,0,0,0,0,0,0,0,0,0,0,0,0,0,0,0,0,0,0,0,0,0,0,0,0,0,0,0,0,0,0,0,0,0,0,0,0,0,0,0,0,0,0,0,0,0,0,0,0,0.0154,0.0154,0,0.0143,0.0143,0.0143,0.0131,0.0131,0.0131,0.0131,0.008,0.0078,0.0077,0,0,0,0,0,0,0,0,0,0,0,0,0,0.0134,0.0135,0.0154,0.0154,0.0154,0.0143,0.0143,0.0143,0.0131,0.0131,0.0131,0.0131,0.008,0.0078,0.0077,0,0,0,0,0,0,0,0,0,0,0,0,0,0.0134,0.0135,0.0154,0.0148,0.0147,0.0143,0.0143,0.0143,0.0131,0.0131,0.0131,0.0131,0.008,0.0079,0.0077,0.0067,0,0,0.0071,0.007,0,0,0,0,0,0,0,0,0.0134,0.0135,0.0149,0.0148,0.0147,0.0139,0.0117,0.0115,0.0131,0.0136,0.0131,0.0131,0.0096,0.0093,0.0091,0.0064,0.0062,0.0071,0.0069,0.0068,0.0068,0,0,0,0,0,0,0,0.0134,0.0135,0.0149,0.0149,0.0148,0.0135,0.0135,0.0117,0.0116,0.0136,0.0135,0.0136,0.0096,0.0093,0.0089,0.0061,0.0071,0.0069,0.0068,0.0067,0.0023,0.0023,0,0,0,0,0,0,0.0139,0.0135,0.0149,0.0148,0.0141,0.0135,0.0135,0.0141,0.0117,0.0114,0.0136,0.0135,0.0096,0.0092,0.0087,0.008,0.0068,0.0067,0.0066,0.0023,0.0023,0.0023,0,0,0,0,0,0,0.0139,0.0141,0.015,0.0142,0.0142,0.0136,0.0143,0.0141,0.0141,0.0117,0.0113,0.0138,0.0096,0.009,0.0073,0.0078,0.0066,0.0064,0.0023,0.0023,0.0023,0.0062,0,0,0,0,0,0,0.0139,0.0141,0.0146,0.0143,0.0143,0.0152,0.0143,0.0141,0.0142,0.0141,0.0117,0.0112,0.0095,0.0076,0.0071,0.0075,0.0062,0.0023,0.0023,0.0023,0.0061,0.0063,0.0066,0,0,0,0,0,0.0138,0.0148,0.0147,0.0148,0.0151,0.0152,0.0151,0.0145,0.0142,0.0144,0.0127,0.0113,0.0073,0.0075,0.0069,0.0072,0.0023,0.0023,0.0023,0.006,0.0063,0.0066,0,0,0,0,0,0,0.0139,0.0148,0.0146,0.0157,0.0156,0.0151,0.0153,0.0149,0.0138,0.0136,0.0113,0.0107,0.0094,0.0076,0.0079,0.0059,0.0046,0.0045,0.0076,0.0078,0.0081,0.0095,0.0061,0,0,0,0,0,0.0143,0.0154,0.0155,0.0163,0.0165,0.0159,0.0159,0.0157,0.0147,0.0143,0.0128,0.0108,0.0089,0.0079,0.0061,0.005,0.0031,0.0047,0.005,0.0052,0.0059,0.0031,0.0031,0.0023,0.0023,0.0023,0,0,0.0144,0.0151,0.0156,0.0164,0.0163,0.0171,0.0159,0.0163,0.0168,0.0138,0.0138,0.0116,0.0087,0.0076,0.0069,0.0063,0.0045,0.0052,0.0054,0.006,0.0031,0.0032,0.0032,0.0023,0.0023,0.0023,0,0,0.0154,0.016,0.0173,0.0178,0.0183,0.018,0.0184,0.0182,0.018,0.0176,0.0154,0.0135,0.0112,0.0092,0.0078,0.0082,0.0059,0.0076,0.0101,0.0073,0.0074,0.0074,0.0055,0.0053,0.0078,0.0078,0.0078,0,0.0154,0.0176,0.0175,0.019,0.0199,0.0187,0.0204,0.0198,0.0191,0.0191,0.0181,0.0146,0.012,0.0102,0.0104,0.0088,0.0072,0.0094,0.0077,0.0077,0.0077,0.0057,0.0054,0.008,0.008,0.008,0.0079,0,0.0176,0.0194,0.0202,0.022,0.0227,0.0239,0.0237,0.0237,0.0232,0.0227,0.0214,0.0178,0.016,0.0145,0.0126,0.0111,0.0102,0.0084,0.0072,0.008,0.0058,0.0055,0.0083,0.0082,0.0081,0.0081,0,0,0.0172,0.0211,0.0214,0.0234,0.0248,0.0258,0.0265,0.027,0.0278,0.026,0.0267,0.0227,0.0211,0.0194,0.0164,0.0138,0.0118,0.0116,0.0114,0.0103,0.0065,0.005,0.0044,0.0099,0.0099,0.0098,0.0052,0,0.0189,0.023,0.0244,0.0279,0.0301,0.0302,0.0315,0.0316,0.0309,0.031,0.0271,0.0265,0.0229,0.0223,0.019,0.0138,0.0112,0.0133,0.0055,0.0053,0.0042,0.0041,0.0097,0.005,0.0049,0.0048,0.0048,0,0.0206,0.0235,0.0278,0.0324,0.0333,0.0352,0.0374,0.0384,0.0375,0.0369,0.0349,0.0325,0.0289,0.0257,0.0174,0.0191,0.0136,0.009,0.0087,0.0058,0.0031,0.0038,0.0042,0.0042,0.0043,0.0043,0.0044,0,0.0211,0.0259,0.0299,0.0314,0.0358,0.0378,0.0398,0.0403,0.0422,0.0409,0.0422,0.0368,0.0353,0.0275,0.0187,0.0182,0.0094,0.0071,0.0004,0.0002,0.0014,0.0014,0.0011,0.0011,0.0012,0.0012,0.0012,0,0.0226,0.0257,0.0308,0.0331,0.0382,0.0403,0.0448,0.0452,0.0471,0.0503,0.046,0.0464,0.0358,0.0299,0.0206,0.01,0.0106,0.0011,-0.0012,0.0031,0.0034,0.0011,0.0012,0.001,0.001,0.0011,0.0011,0,0.0222,0.0256,0.0306,0.0364,0.0389,0.0423,0.0494,0.0522,0.0536,0.0575,0.058,0.0537,0.0458,0.0349,0.0219,0.0133,0.0025,-0.0015,0.005,0.0032,-0.0052,-0.0049,-0.0094,-0.0095,-0.0096,-0.0096,-0.0097,0,0.0224,0.0251,0.0328,0.0367,0.0398,0.0458,0.0505,0.0545,0.0582,0.062,0.064,0.0589,0.0544,0.036,0.0225,0.0046,0.0014,-0.0044,-0.0061,-0.0046,-0.0063,-0.0059,-0.0055,-0.0098,-0.0099,-0.0099,-0.0099,0,0.0226,0.0254,0.0296,0.0377,0.0439,0.051,0.058,0.0615,0.0669,0.0686,0.0696,0.0613,0.0521,0.0365,0.0228,0.0095,-0.001,-0.0053,-0.0053,-0.0069,-0.0051,-0.0067,-0.0062,-0.0102,-0.0101,-0.0101,-0.0101,0,0.0223,0.025,0.0312,0.0383,0.0465,0.0546,0.0584,0.0644,0.0688,0.0734,0.0731,0.0644,0.0589,0.039,0.0263,0.0131,0.0088,0.0033,0.0028,0.0029,0.0069,0.011,0.0093,0,0,0,0,0,0.0216,0.0252,0.0318,0.0405,0.0488,0.0544,0.0631,0.0666,0.0724,0.0738,0.0741,0.0661,0.0484,0.0404,0.027,0.0222,0.0047,0.0057,-0.0023,-0.0117,-0.0114,-0.0091,0,0,0,0,0,0,0.0212,0.0266,0.0309,0.0414,0.0479,0.0578,0.0641,0.0682,0.0691,0.0725,0.0634,0.0611,0.0433,0.0563,0.0264,0.0224,0.015,-0.002,-0.0024,-0.0119,-0.0116,-0.0114,-0.0089,0,0,0,0,0]}]]